Volver al catálogo

COSMOS 2584

GLONASS

ActivoNavegaciónMEO
NORAD 63130·PAYLOAD·🇷🇺 Russia

Lanzado Mar 2, 2025 desde Plesetsk Cosmodrome

Loading…

Próximos Pases (próximas 24 horas)

TLE

ActualizadoSource: CelesTrak SupGP

Época: Sep 12, 2026, 23:59 UTC

1 63130C 25042A   26255.99979167  .00000000  00000+0  00000+0 0  2556
2 63130  65.1399  69.8188 0006518 202.9105 240.2713  2.13103580    10

Sigue COSMOS 2584 en tiempo real con AllMySat

Download on the App Store